Weather History for YBHM - November, 2012

Change the Weather History Date:

Saturday, November 17, 2012

  Actual Average Record
Temperature  
Mean Temperature 78 °F -  
Max Temperature 84 °F - - ()
Min Temperature 73 °F - - ()
Cooling Degree Days 14    
Growing Degree Days 28 (Base 50)    
Moisture  
Dew Point 62 °F    
Average Humidity 58    
Maximum Humidity 73    
Minimum Humidity 38    
Precipitation  
Precipitation 0.00 in - - ()
Sea Level Pressure  
Sea Level Pressure 29.84 in    
Wind  
Wind Speed 9 mph ()    
Max Wind Speed 20 mph    
Max Gust Speed -    
T = Trace of Precipitation, MM = Missing Value Source: Averaged Metar Reports

Daily Weather History Graph

Daily Weather History Graph

Search for Another Location

Airport or City:

Trip Planner

Search our weather history database for the weather conditions in past years. The results will help you decide how hot, cold, wet, or windy it might be!

Date:

Astronomy

Nov. 17, 2012 Rise Set
Actual Time 5:15 AM AEST 6:22 PM AEST
Civil Twilight 4:52 AM AEST 6:46 PM AEST
Nautical Twilight 4:24 AM AEST 7:14 PM AEST
Astronomical Twilight 3:55 AM AEST 7:43 PM AEST
Moon 8:18 AM AEST (11/17) 9:49 PM AEST (11/17)
Length of Visible Light 13h 54m
Length of Day
13h 06m
Waxing Crescent, 14% of the Moon is Illuminated
Nov 17
Waxing Crescent
Nov 21
First Quarter
Nov 29
Full
Dec 7
Last Quarter
Dec 13
New

Hourly Weather History & Observations

Time (AEST) Temp. Heat Index Dew Point Humidity Pressure Visibility Wind Dir Wind Speed Gust Speed Precip Events Conditions
12:00 AM 74 °F - 62 °F 57% 29.88 in - NNW 6.9 mph - -  
12:00 AM 73.4 °F - 62.6 °F 69% 29.89 in - NNW 6.9 mph - N/A   Unknown
12:30 AM 73.4 °F - 60.8 °F 65% 29.86 in - North 8.1 mph - N/A   Unknown
1:00 AM 75.2 °F - 62.6 °F 65% 29.86 in - North 8.1 mph - N/A   Unknown
1:30 AM 73.4 °F - 62.6 °F 69% 29.83 in - NNW 5.8 mph - N/A   Unknown
2:00 AM 73.4 °F - 62.6 °F 69% 29.83 in - NW 5.8 mph - N/A   Unknown
2:30 AM 73.4 °F - 64.4 °F 73% 29.83 in - WNW 4.6 mph - N/A   Unknown
3:00 AM 74 °F - 63 °F 60% 29.83 in - WNW 4.6 mph - -  
3:00 AM 73.4 °F - 62.6 °F 69% 29.83 in - WNW 4.6 mph - N/A   Unknown
3:30 AM 73.4 °F - 62.6 °F 69% 29.83 in - NNW 4.6 mph - N/A   Unknown
4:00 AM 73.4 °F - 60.8 °F 65% 29.83 in - North 5.8 mph - N/A   Unknown
4:30 AM 73.4 °F - 62.6 °F 69% 29.86 in - NNW 3.5 mph - N/A   Unknown
5:00 AM 75.2 °F - 62.6 °F 65% 29.86 in - North 9.2 mph - N/A   Unknown
5:30 AM 75.2 °F - 60.8 °F 61% 29.86 in - North 9.2 mph - N/A   Unknown
6:00 AM 74 °F - 61 °F 56% 29.86 in - NNW 5.8 mph - -  
6:00 AM 75.2 °F - 60.8 °F 61% 29.86 in - NNW 5.8 mph - N/A   Unknown
6:30 AM 75.2 °F - 60.8 °F 61% 29.86 in - NNW 6.9 mph - N/A   Unknown
7:00 AM 77.0 °F - 60.8 °F 57% 29.89 in - NNW 8.1 mph - N/A   Unknown
7:30 AM 77.0 °F - 62.6 °F 61% 29.89 in - NNW 10.4 mph - N/A   Unknown
8:00 AM 78.8 °F - 59.0 °F 51% 29.89 in - NW 12.7 mph - N/A   Unknown
8:30 AM 78.8 °F - 59.0 °F 51% 29.86 in - NW 15.0 mph - N/A   Unknown
9:00 AM 79 °F - 58 °F 38% 29.88 in - NW 16.1 mph - -  
9:00 AM 78.8 °F - 57.2 °F 47% 29.89 in - NW 16.1 mph - N/A   Unknown
9:30 AM 80.6 °F 81.1 °F 59.0 °F 48% 29.86 in - NW 17.3 mph - N/A   Unknown
10:00 AM 80.6 °F 82.7 °F 66.2 °F 61% 29.86 in - NW 16.1 mph - N/A   Unknown
10:30 AM 80.6 °F 82.3 °F 64.4 °F 58% 29.86 in - NW 16.1 mph - N/A   Unknown
11:00 AM 82.4 °F 83.9 °F 64.4 °F 54% 29.86 in - NNW 17.3 mph - N/A   Unknown
11:30 AM 82.4 °F 82.5 °F 59.0 °F 45% 29.86 in - NW 18.4 mph - N/A   Unknown
12:00 PM 83 °F - 62 °F 40% 29.85 in - NW 16.1 mph - -  
12:00 PM 82.4 °F 83.4 °F 62.6 °F 51% 29.86 in - NW 16.1 mph - N/A   Unknown
12:30 PM 82.4 °F 82.9 °F 60.8 °F 48% 29.83 in - NW 16.1 mph - N/A   Unknown
1:00 PM 82.4 °F 82.9 °F 60.8 °F 48% 29.83 in - NNW 19.6 mph - N/A   Unknown
1:30 PM 82.4 °F 83.4 °F 62.6 °F 51% 29.80 in - NW 19.6 mph - N/A   Unknown
2:00 PM 82.4 °F 82.9 °F 60.8 °F 48% 29.80 in - NW 16.1 mph - N/A   Unknown
2:30 PM 84.2 °F 85.0 °F 62.6 °F 48% 29.80 in - NW 16.1 mph - N/A   Unknown
3:00 PM 83 °F - 61 °F 38% 29.81 in - NW 15.0 mph - -  
3:00 PM 82.4 °F 82.9 °F 60.8 °F 48% 29.80 in - NW 15.0 mph - N/A   Unknown
3:30 PM 82.4 °F 82.9 °F 60.8 °F 48% 29.80 in - NW 15.0 mph - N/A   Unknown
4:00 PM 82.4 °F 83.9 °F 64.4 °F 54% 29.80 in - NW 15.0 mph - N/A   Unknown
4:30 PM 82.4 °F 83.9 °F 64.4 °F 54% 29.77 in - NW 15.0 mph - N/A   Unknown
5:00 PM 82.4 °F 83.4 °F 62.6 °F 51% 29.77 in - NNW 15.0 mph - N/A   Unknown
5:30 PM 80.6 °F 81.8 °F 62.6 °F 54% 29.77 in - NNW 13.8 mph - N/A   Unknown
6:00 PM 79 °F - 62 °F 47% 29.78 in - North 12.7 mph - -  
6:00 PM 78.8 °F - 62.6 °F 57% 29.77 in - North 12.7 mph - N/A   Unknown
6:30 PM 77.0 °F - 62.6 °F 61% 29.80 in - NNE 11.5 mph - N/A   Unknown
7:00 PM 77.0 °F - 62.6 °F 61% 29.80 in - North 9.2 mph - N/A   Unknown
7:30 PM 77.0 °F - 62.6 °F 61% 29.83 in - North 11.5 mph - N/A   Unknown
8:00 PM 77.0 °F - 64.4 °F 65% 29.83 in - North 6.9 mph - N/A   Unknown
8:30 PM 77.0 °F - 64.4 °F 65% 29.83 in - North 10.4 mph - N/A   Unknown
9:00 PM 75 °F - 65 °F 62% 29.83 in - North 6.9 mph - -  
9:00 PM 75.2 °F - 64.4 °F 69% 29.83 in - North 6.9 mph - N/A   Unknown
9:30 PM 75.2 °F - 64.4 °F 69% 29.83 in - NNW 8.1 mph - N/A   Unknown
10:00 PM 75.2 °F - 64.4 °F 69% 29.86 in - NNW 9.2 mph - N/A   Unknown
10:30 PM 75.2 °F - 66.2 °F 73% 29.86 in - NNW 8.1 mph - N/A   Unknown
11:00 PM 75.2 °F - 64.4 °F 69% 29.86 in - NNW 11.5 mph - N/A   Unknown
11:30 PM 75.2 °F - 64.4 °F 69% 29.86 in - NNW 9.2 mph - N/A   Unknown